{"data":{"norad_id":50491,"intl_designator":"2021-132Y","name":"ONEWEB-0414","alt_names":[],"object_type":"PAYLOAD","status":"ACTIVE","operator":null,"country":"UK","launch_date":"2021-12-27","launch_site_code":"TYMSC","launch_vehicle":null,"mission":null,"orbit_class":"UNKNOWN","rcs_meters":null,"size_class":null,"mass_kg":null,"dimensions":null,"purposes":["comms"],"wikipedia_slug":null,"has_3d_model":false,"image_url":null,"decayed_at":null,"tle_current":{"epoch":"2026-09-19T20:44:53.224224Z","epoch_age_seconds":80789,"freshness":"FRESH","line1":"1 50491U 21132Y   26262.86450491  .00000067  00000+0  13695-3 0  9992","line2":"2 50491  87.9164 316.6293 0002125  96.1330 264.0044 13.18686662234105","mean_motion":13.18686662,"eccentricity":0.0002125,"inclination_deg":87.9164,"raan_deg":316.6293,"arg_perigee_deg":96.133,"mean_anomaly_deg":264.0044,"bstar":0.00013695,"rev_number":23410,"period_min":109.19955752157,"perigee_km":1188.132420087,"apogee_km":1191.3487680645,"semimajor_km":7567.8775940757,"source":"CELESTRAK","updated_at":"2026-09-20T09:00:44.704488Z"}}}